Torna al catalogo

ATS 5 AKM

AttivoMEO
NORAD 21052·ROCKET BODY·🇺🇸 United States

Lanciato Aug 12, 1969 da Cape Canaveral Space Force Station

Loading…

Prossimi Passaggi (prossime 24 ore)

TLE

AggiornatoSource: Space-Track

Epoca: Sep 14, 2026, 22:16 UTC

1 21052U 69069C   26257.92798076 -.00000300  00000-0  00000-0 0  9994
2 21052   0.3514 271.4092 0131373 312.4840  84.7941  0.98183378 47269

Traccia ATS 5 AKM in tempo reale con AllMySat

Download on the App Store